Regional Weather Roundup
Issued by NWS

Home | Current Version | Previous Version | Text Only | Print | Product List | Glossary Off
Versions: 1 2 3 4 5 6 7 8 9 10 11 12 13 14 15 16 17 18 19 20 21 22 23 24 25 26 27 28

000
ASUS45 KBOI 231310
RWRID

IDAHO REGIONAL WEATHER ROUNDUP
NATIONAL WEATHER SERVICE BOISE ID
700 AM MDT WED MAY 23 2018

NOTE: "FAIR" INDICATES FEW OR NO CLOUDS BELOW 12000 FEET
WITH NO SIGNIFICANT WEATHER AND/OR OBSTRUCTIONS TO VISIBILITY

IDZ012-014-231400-
SOUTHWEST IDAHO


CITY           SKY/WX    TMP DP  RH WIND       PRES   REMARKS
BOISE          PTCLDY    60  49  66 SE7       29.84R
CALDWELL       CLOUDY    57  51  80 CALM      29.84R
MOUNTAIN HOME  CLOUDY    57  57 100 E8        29.85R
$$

IDZ016-017-231400-
SOUTHCENTRAL IDAHO


CITY           SKY/WX    TMP DP  RH WIND       PRES   REMARKS
BURLEY         PTCLDY    51  45  79 W6        29.90R
JEROME         PTCLDY    52  47  83 N5        29.90R
TWIN FALLS     PTCLDY    48  45  89 CALM      29.90R
$$

IDZ019>023-231400-
SOUTHEAST IDAHO


CITY           SKY/WX    TMP DP  RH WIND       PRES   REMARKS
IDAHO FALLS    LGT RAIN  53  50  89 SE6       29.95S
POCATELLO      CLOUDY    55  47  74 CALM      29.93R
REXBURG        LGT RAIN  51  47  86 S5        29.95S
$$

IDZ006-010-011-018-031-032-231400-
CENTRAL IDAHO MOUNTAINS


CITY           SKY/WX    TMP DP  RH WIND       PRES   REMARKS
MCCALL         MOCLDY    42  42 100 W3        29.90S FOG
HAILEY         MOCLDY    48  45  87 NW8       29.97R
STANLEY          N/A     43  41  93 CALM      30.00S
SALMON         MOCLDY    47  45  93 CALM      29.93S
CHALLIS        CLOUDY    51  48  89 CALM      29.95R
$$

IDZ002-004-006-007-026-231400-
NORTHERN IDAHO


CITY           SKY/WX    TMP DP  RH WIND       PRES   REMARKS
LEWISTON       CLOUDY    62  57  83 E3        29.78S
LOWELL           N/A     52  52 100 CALM      29.85S
COEUR D`ALENE  CLEAR     59  46  62 NE13      29.83S
MULLAN PASS    CLEAR     52  36  54 E9G18     29.95F
$$




USA.gov is the U.S. government's official web portal to all federal, state and local government web resources and services.